Greenville, MS

12:39 PM CDT on June 22, 2018 (GMT -0500)
Mid Delta Regional

Weather History for KGLH - May, 2018

Change the Weather History Date:

Monday, May 21, 2018

  Actual Average Record
Temperature  
Mean Temperature 79 °F 74 °F  
Max Temperature 89 °F 84 °F 95 °F (1987)
Min Temperature 68 °F 64 °F 48 °F (1993)
Degree Days  
Heating Degree Days 0 0  
Month to date heating degree days 0 10  
Since 1 July heating degree days 2677 2771  
Cooling Degree Days 14 9  
Month to date cooling degree days 237 138  
Year to date cooling degree days 295 224  
Growing Degree Days 28 (Base 50)    
Moisture  
Dew Point 68 °F    
Average Humidity 72    
Maximum Humidity 93    
Minimum Humidity 50    
Precipitation  
Precipitation 0.30 in 0.15 in 1.46 in (2013)
Month to date precipitation 1.47 3.62  
Year to date precipitation 25.03 22.97  
Sea Level Pressure  
Sea Level Pressure 30.00 in    
Wind  
Wind Speed 6 mph (East)    
Max Wind Speed 36 mph    
Max Gust Speed 45 mph    
Visibility 8 miles    
Events Fog , Rain , Thunderstorm    
T = Trace of Precipitation, MM = Missing Value Source: NWS Daily Summary

Daily Weather History Graph

Daily Weather History Graph

Search for Another Location

Airport or City:

Astronomy

May. 21, 2018 Rise Set
Actual Time 5:59 AM CDT 8:01 PM CDT
Civil Twilight 5:31 AM CDT 8:29 PM CDT
Nautical Twilight 4:58 AM CDT 9:03 PM CDT
Astronomical Twilight 4:21 AM CDT 9:39 PM CDT
Moon 12:18 PM CDT (5/21) 1:16 AM CDT (5/21)
Length of Visible Light 14h 57m
Length of Day
14h 02m
Waxing Crescent, 45% of the Moon is Illuminated
May 21
Waxing Crescent
May 21
First Quarter
May 29
Full
Jun 6
Last Quarter
Jun 13
New

Hourly Weather History & Observations

Time (CDT) Temp. Heat Index Dew Point Humidity Pressure Visibility Wind Dir Wind Speed Gust Speed Precip Events Conditions
12:53 AM 73.0 °F - 66.0 °F 79% 30.01 in 10.0 mi ESE 11.5 mph - N/A   Clear
1:53 AM 73.0 °F - 64.9 °F 76% 30.01 in 10.0 mi East 4.6 mph - N/A   Partly Cloudy
2:53 AM 73.0 °F - 66.0 °F 79% 30.01 in 10.0 mi SE 9.2 mph - N/A Thunderstorm Mostly Cloudy
3:09 AM 72.0 °F - 66.9 °F 84% 30.00 in 10.0 mi South 5.8 mph - N/A Thunderstorm Thunderstorm
3:24 AM 72.0 °F - 66.9 °F 84% 30.00 in 10.0 mi Calm Calm - N/A Thunderstorm Mostly Cloudy
3:53 AM 72.0 °F - 66.0 °F 81% 30.01 in 10.0 mi SSW 4.6 mph - 0.00 in Rain Light Rain
4:53 AM 72.0 °F - 68.0 °F 87% 30.01 in 10.0 mi NE 6.9 mph - 0.00 in   Mostly Cloudy
5:22 AM 71.1 °F - 68.0 °F 90% 30.00 in 10.0 mi NE 9.2 mph - N/A   Mostly Cloudy
5:53 AM 70.0 °F - 66.9 °F 90% 30.02 in 10.0 mi ENE 8.1 mph - N/A   Partly Cloudy
6:53 AM 71.1 °F - 68.0 °F 90% 30.04 in 10.0 mi ENE 5.8 mph - N/A   Mostly Cloudy
7:53 AM 73.0 °F - 68.0 °F 84% 30.05 in 10.0 mi East 6.9 mph - N/A   Clear
8:53 AM 75.9 °F - 69.1 °F 79% 30.06 in 10.0 mi East 8.1 mph - N/A   Clear
9:53 AM 79.0 °F - 68.0 °F 69% 30.06 in 10.0 mi SE 8.1 mph - N/A   Partly Cloudy
10:53 AM 81.0 °F 84.4 °F 70.0 °F 69% 30.06 in 10.0 mi Variable 6.9 mph - N/A   Mostly Cloudy
11:27 AM 82.9 °F 85.8 °F 68.0 °F 60% 30.05 in 9.0 mi SSE 5.8 mph - N/A   Scattered Clouds
11:53 AM 82.0 °F 84.9 °F 68.0 °F 62% 30.06 in 10.0 mi Calm Calm - N/A   Mostly Cloudy
12:53 PM 84.9 °F 87.6 °F 66.9 °F 55% 30.04 in 10.0 mi Calm Calm - N/A   Scattered Clouds
1:53 PM 87.1 °F 89.9 °F 66.9 °F 51% 30.01 in 10.0 mi ENE 8.1 mph - N/A   Mostly Cloudy
2:53 PM 88.0 °F 90.7 °F 66.9 °F 49% 29.99 in 10.0 mi Variable 5.8 mph - N/A   Scattered Clouds
3:53 PM 84.9 °F 88.2 °F 68.0 °F 57% 29.96 in 3.0 mi Variable 3.5 mph - 0.02 in Rain Heavy Rain
3:58 PM 82.9 °F 85.8 °F 68.0 °F 60% 29.94 in 1.8 mi North 3.5 mph - 0.03 in Rain Heavy Rain
4:06 PM 82.0 °F 85.9 °F 70.0 °F 67% 29.94 in 3.0 mi NE 5.8 mph - 0.03 in Rain Light Rain
4:53 PM 86.0 °F 89.4 °F 68.0 °F 55% 29.95 in 10.0 mi Calm Calm - 0.03 in   Clear
5:12 PM 84.9 °F 88.2 °F 68.0 °F 57% 29.93 in 10.0 mi Calm Calm - N/A Thunderstorm Thunderstorm
5:40 PM 70.0 °F - 66.0 °F 87% 29.95 in 1.8 mi North 25.3 mph 46.0 mph 0.02 in Rain , Thunderstorm Thunderstorms and Rain
5:50 PM 69.8 °F - 66.2 °F 88% 29.95 in 0.5 mi NE 16.1 mph 26.5 mph 0.10 in Fog , Rain , Thunderstorm Heavy Thunderstorms and Rain
5:53 PM 71.1 °F - 68.0 °F 90% 29.98 in 0.8 mi NNE 17.3 mph - 0.13 in Rain , Thunderstorm Heavy Thunderstorms and Rain
5:59 PM 71.1 °F - 68.0 °F 90% 29.96 in 2.5 mi NNE 12.7 mph - 0.04 in Rain , Thunderstorm Light Thunderstorms and Rain
6:06 PM 72.0 °F - 68.0 °F 87% 29.96 in 10.0 mi NNE 11.5 mph - 0.06 in Rain , Thunderstorm Light Thunderstorms and Rain
6:25 PM 73.0 °F - 69.1 °F 87% 29.98 in 10.0 mi NE 9.2 mph - 0.06 in Thunderstorm Thunderstorm
6:53 PM 73.0 °F - 69.1 °F 87% 30.02 in 10.0 mi ESE 5.8 mph - 0.06 in Thunderstorm Mostly Cloudy
7:18 PM 72.0 °F - 69.1 °F 91% 30.02 in 6.0 mi Calm Calm - 0.00 in Rain Light Rain
7:40 PM 72.0 °F - 69.1 °F 91% 30.01 in 2.5 mi SE 10.4 mph - 0.02 in Rain , Thunderstorm Rain
7:53 PM 71.1 °F - 69.1 °F 93% 30.02 in 2.5 mi SE 11.5 mph - 0.04 in Rain , Thunderstorm Rain
7:57 PM 71.1 °F - 69.1 °F 93% 30.00 in 3.0 mi ESE 11.5 mph - 0.01 in Rain Rain
8:53 PM 71.1 °F - 68.0 °F 90% 30.00 in 10.0 mi East 8.1 mph - 0.02 in   Clear
9:53 PM 69.1 °F - 66.9 °F 93% 30.00 in 10.0 mi WSW 3.5 mph - N/A   Clear
10:53 PM 68.0 °F - 66.0 °F 93% 30.01 in 10.0 mi SSW 3.5 mph - N/A   Clear
11:53 PM 69.1 °F - 66.9 °F 93% 30.01 in 10.0 mi Calm Calm - N/A   Clear